Location: Peebles
(55.6412°N, 3.1714°W)
Time: 20:05:04
(UTC+01:00)

Envisat - Pass Details

Date: 03 March 2024
Orbit: 762 x 764 km, 98.3° (Epoch: 21 April)

Event Time Altitude Azimuth Distance (km) Brightness Sun altitude
Rises 05:41:45 0° 10° (N) 3,246 6.5 -11.5°
Reaches altitude 10° 05:44:34 10° 355° (N) 2,315 5.5 -11.1°
Maximum altitude 05:48:15 21° 308° (NW) 1,690 4.4 -10.6°
Enters shadow 05:51:07 13° 269° (W) 2,081 4.6 -10.2°
